Flag for Poland Weather past 2 weeks in Warsaw, Poland

34 °F


Feels Like: 25 °F
Forecast: 27 / 33 °F
Wind: 12 mph from Southeast

Location: Warsaw Okecie Airport

Current Time: Nov 25, 2015 at 11:42:05 AM

Latest Report: Nov 25, 2015 at 11:00 AM

Visibility: 10 mi

Pressure: 29.89 "Hg

Humidity: 75%

Dew point: 27 °F

Location of WarsawLocation

Historic Weather in Warsaw — Graph


Warsaw temperature yesterday

Maximum temperature yesterday: 34 °F (at 10:00 AM)
Minimum temperature yesterday: 23 °F (at 9:30 PM)
Average temperature yesterday: 31 °F

Past Weeks' High & Low Weather Summary

High59 °F (Nov 11, 10:30 AM)100% (Nov 11, 12:00 AM)30.27 "Hg (Nov 11, 12:00 AM)
Low21 °F (Nov 25, 2:00 AM)62% (Nov 14, 4:30 PM)29.30 "Hg (Nov 21, 6:30 AM)
Average44 °F87%29.83 "Hg
* Reported Nov 10 10:00 AM — Nov 25 10:30 AM, Warsaw, Weather by CustomWeather, © 2015

Note: Actual official high and low records may vary slightly from our data, if they occured in-between our weather recording intervals... More about our weather records


Warsaw weather history for previous 24 hours

Time TempWeatherWind HumidityBarometerVisibility
10:30 AM
Wed, Nov 25
32 °FSunny.10 mph80%29.92 "Hg10 mi
10:00 AM32 °FSunny.10 mph80%29.92 "Hg10 mi
9:30 AM30 °FSunny.9 mph80%29.92 "Hg10 mi
9:00 AM28 °FSunny.9 mph86%29.95 "Hg10 mi
8:00 AM27 °FSunny.8 mph86%29.95 "Hg10 mi
7:30 AM25 °FSunny.9 mph93%29.95 "Hg10 mi
7:00 AM23 °FClear.9 mph93%29.98 "Hg10 mi
6:30 AM21 °FClear.8 mph93%29.98 "Hg10 mi
6:00 AM21 °FClear.7 mph93%29.98 "Hg6 mi
5:00 AM21 °FClear.6 mph93%29.98 "Hg5 mi
4:30 AM21 °FClear.6 mph93%30.01 "Hg5 mi
4:00 AM21 °FClear.6 mph93%30.01 "Hg4 mi
3:30 AM23 °FClear.5 mph93%30.01 "Hg4 mi
3:00 AM21 °FClear.5 mph100%30.04 "Hg4 mi
2:30 AM21 °FClear.6 mph93%30.04 "Hg4 mi
2:00 AM21 °FClear.6 mph93%30.07 "Hg4 mi
1:00 AM23 °FClear.5 mph93%30.07 "Hg4 mi
12:30 AM23 °FClear.6 mph93%30.09 "Hg4 mi
12:00 AM25 °FClear.7 mph93%30.09 "Hg4 mi
11:00 PM
Tue, Nov 24
25 °FClear.7 mph93%30.12 "Hg10 mi
10:30 PM25 °FClear.5 mph93%30.12 "Hg10 mi
10:00 PM25 °FClear.6 mph93%30.12 "Hg10 mi
9:30 PM23 °FClear.6 mph93%30.12 "Hg10 mi
9:00 PM27 °FClear.6 mph93%30.15 "Hg10 mi
8:30 PM27 °FClear.6 mph93%30.15 "Hg6 mi
8:00 PM27 °FClear.7 mph93%30.15 "Hg10 mi
7:30 PM28 °FClear.6 mph86%30.15 "Hg10 mi
7:00 PM28 °FClear.6 mph86%30.18 "Hg10 mi
6:30 PM30 °FClear.5 mph86%30.18 "Hg10 mi
6:00 PM30 °FClear.5 mph86%30.18 "Hg10 mi
5:30 PM30 °FPassing clouds.3 mph86%30.18 "HgN/A
5:00 PM32 °FPassing clouds.3 mph80%30.18 "HgN/A
4:30 PM32 °FPassing clouds.3 mph80%30.18 "HgN/A
4:00 PM34 °FPassing clouds.3 mph70%30.18 "HgN/A
3:30 PM34 °FPartly sunny.5 mph70%30.18 "HgN/A
3:00 PM34 °FPartly sunny.6 mph81%30.21 "HgN/A
2:30 PM34 °FPartly sunny.5 mph81%30.21 "HgN/A
2:00 PM34 °FBroken clouds.6 mph81%30.21 "HgN/A
1:30 PM34 °FPartly sunny.6 mph81%30.21 "HgN/A
1:00 PM34 °FPartly sunny.6 mph87%30.21 "HgN/A
12:30 PM34 °FPartly sunny.7 mph87%30.24 "Hg6 mi
12:00 PM34 °FLight snow. Overcast.7 mph87%30.24 "Hg6 mi
11:30 AM34 °FPartly sunny.7 mph87%30.24 "HgN/A
11:00 AM34 °FPartly sunny.6 mph81%30.24 "Hg6 mi
Weather by CustomWeather, © 2015

See weather overviewHow to use our weather pages